Simultaneous Nadir Overpasses (SNOs) Predictions

Prediction of SNOs between AQUA and METOP-B Satellite Orbit:

Table of predicted SNOs for the next 14.0 days since TLE Epoch: 3/10/2017
Index Date (AQUA) Time (AQUA) Lat,Lon (AQUA) SZA (AQUA ) Date (METOP-B) Time (METOP-B) Lat,Lon (METOP-B) SZA (METOP-B ) Distance(km) Time Diff (sec)
1 03/12/2017 09:07:54 -73.73,-142.51 103.03 03/12/2017 09:06:59 -73.72,-142.46 103.03 2.00 55
2 03/12/2017 09:57:22 73.77, 25.05 77.00 03/12/2017 09:57:38 73.77, 25.00 77.01 2.00 16
3 03/12/2017 10:46:59 -74.39,-168.74 102.34 03/12/2017 10:48:06 -74.39,-166.16 102.45 77.38 67
4 03/15/2017 04:42:12 -73.72, -76.07 104.15 03/15/2017 04:41:20 -73.74, -76.01 104.13 2.56 52
5 03/15/2017 05:31:40 73.76, 91.48 75.88 03/15/2017 05:31:59 73.79, 91.43 75.91 3.36 19
6 03/15/2017 06:21:21 -74.54,-102.67 103.30 03/15/2017 06:22:26 -74.50, -99.45 103.46 95.56 65
7 03/18/2017 00:16:31 -73.72, -9.64 105.28 03/18/2017 00:15:43 -73.71, -9.69 105.28 1.97 48
8 03/18/2017 01:06:00 73.81, 157.79 74.82 03/18/2017 01:06:21 73.80, 157.87 74.80 3.02 21
9 03/20/2017 19:50:50 -73.72, 56.78 106.39 03/20/2017 19:50:05 -73.72, 56.75 106.38 0.76 45
10 03/20/2017 20:40:19 73.82,-135.81 73.71 03/20/2017 20:40:43 73.81,-135.70 73.69 3.58 24
11 03/23/2017 15:25:08 -73.73, 123.18 107.50 03/23/2017 15:24:26 -73.73, 123.19 107.49 0.54 42
12 03/23/2017 16:14:36 73.79, -69.30 72.55 03/23/2017 16:15:05 73.77, -69.40 72.53 3.52 29




NCC Satellite Simultaneous Nadir Overpasses (SNOs) Prediction Service
